Wind_Speed
8 9 9 10 9 9 9 9 9 8 7 7 6 6 6 7 7 7 7 8 8 8 7 7 7 8 8 8 8 9 9 8 8 7 7 8 8 9 10 10 10 11 11
9 10 10 10 10 10 10 10 10 8 7 7 7 7 7 7 8 8 8 8 8 8 8 8 8 8 8 8 9 10 9 9 9 9 8 9 10 10 11 11 12 12 12
10 10 10 10 10 11 10 10 10 9 8 7 7 8 8 8 9 8 9 8 8 7 7 7 8 8 7 8 10 10 10 10 9 10 10 10 11 11 11 11 12 12 12
11 11 10 10 11 11 11 10 10 10 9 8 8 8 8 8 8 8 8 8 6 6 6 7 7 6 8 9 10 11 11 11 11 11 11 12 12 12 12 12 13 13 13
12 12 11 11 11 12 12 11 11 11 10 9 9 9 8 8 8 9 8 8 7 6 7 8 8 8 10 11 12 12 12 12 12 12 12 12 13 13 13 13 14 14 15
14 14 13 12 12 13 13 12 11 11 11 10 10 9 9 9 9 8 8 7 7 7 8 8 9 10 11 12 12 13 13 13 14 13 13 13 14 14 14 14 15 16 17
15 15 15 13 13 13 13 13 12 11 11 11 11 11 10 10 10 9 8 8 8 8 9 10 10 11 12 12 13 13 14 14 14 14 14 15 15 15 15 16 16 17 18
15 14 15 15 15 14 14 14 13 12 12 12 12 11 11 11 10 10 10 9 9 10 10 11 12 13 13 14 14 14 15 15 16 15 16 16 16 17 16 17 17 18 19
16 15 16 16 15 15 14 14 14 14 13 13 12 12 12 12 11 10 10 10 10 11 11 12 13 13 14 14 15 16 17 17 17 17 17 17 17 17 18 18 19 19 19
16 15 16 16 15 15 15 14 15 15 14 14 14 13 13 13 12 12 12 12 12 12 13 14 14 15 16 16 17 18 18 18 18 18 19 19 19 20 20 20 21 22 22
18 18 17 16 15 15 15 15 16 15 15 15 14 15 15 15 15 14 13 13 13 14 14 15 15 16 17 18 19 19 20 20 20 20 20 21 21 21 22 22 22 22 22
19 19 18 17 17 17 16 16 17 17 16 16 16 17 17 16 15 15 15 15 15 15 16 16 16 17 18 19 20 20 20 20 21 21 21 21 22 22 22 23 22 22 22
20 20 19 18 18 18 17 18 18 18 17 17 18 18 18 17 17 17 17 17 17 17 18 18 19 19 20 21 21 21 22 22 22 22 22 22 22 22 23 23 23 23 23
20 21 20 20 19 19 19 19 19 19 18 19 19 18 18 18 18 18 18 18 19 19 20 21 21 21 22 22 23 23 23 23 23 23 23 24 24 23 24 24 25 25 25
21 21 21 21 21 20 20 20 20 20 20 20 20 20 19 19 19 20 21 21 21 22 22 23 23 23 24 24 24 24 24 24 24 25 25 25 25 25 25 26 26 26 26
23 23 23 22 22 22 22 22 22 22 22 22 21 21 21 20 21 21 22 22 22 23 24 25 25 25 25 25 26 26 26 26 26 26 26 26 26 26 27 27 27 26 26
25 24 24 24 24 23 24 23 23 23 23 23 23 22 22 22 22 22 23 23 24 25 25 26 26 27 27 27 27 27 27 27 27 27 27 27 28 28 29 29 29 28 28
25 24 24 24 24 24 24 23 24 23 23 23 23 23 23 23 23 24 25 25 25 26 27 27 27 27 27 28 28 28 29 29 28 28 28 28 28 29 29 30 30 29 29
25 24 25 25 24 24 24 24 24 25 25 25 25 25 25 25 25 25 26 26 27 28 28 29 29 29 29 29 29 29 29 29 29 29 29 28 28 29 29 29 29 29 29
26 25 25 26 25 25 25 24 24 24 25 25 26 26 26 26 26 27 27 28 28 28 28 29 29 30 30 30 29 29 28 29 29 29 29 29 29 29 29 28 28 27 27
27 27 26 26 26 26 25 25 25 25 26 27 27 27 27 27 27 28 28 28 29 29 29 29 29 30 31 31 31 29 29 29 28 29 29 29 29 28 27 27 27 27 27
28 27 27 26 27 27 27 27 27 28 28 28 28 28 28 29 29 28 29 29 30 30 30 30 30 31 32 32 31 31 30 29 29 29 28 28 27 27 27 27 27 26 26
29 29 28 27 28 29 29 29 29 29 29 29 29 30 30 30 30 30 31 31 31 31 31 31 31 32 32 32 31 30 29 28 28 29 29 28 27 27 27 26 26 25 25
30 30 30 30 30 30 30 30 30 30 30 30 31 31 32 31 31 31 32 32 33 32 33 33 32 32 32 31 31 30 30 30 29 29 29 28 28 27 27 26 25 25 25
30 30 30 30 31 31 31 31 31 31 31 31 32 32 32 33 32 33 33 33 33 33 33 33 32 32 31 31 31 30 30 30 29 29 29 29 28 27 26 26 25 24 24
31 31 30 30 31 31 31 31 31 31 31 31 31 31 32 33 33 33 34 34 33 33 32 31 31 30 30 30 30 29 29 29 29 29 29 28 27 26 26 26 25 25 25
Wind_Direction
340 346 346 344 342 339 336 335 331 324 321 324 330 331 335 332 325 318 316 315 310 312 311 312 311 314 317 320 327 325 321 324 322 321 321 318 316 315 311 308 308 301 295
334 335 336 336 337 336 334 334 333 329 325 327 332 330 326 325 325 320 316 315 310 307 311 307 307 307 311 319 323 323 319 315 315 317 318 316 314 312 311 308 310 308 300
326 326 327 330 331 330 330 331 332 331 331 331 332 336 333 327 324 326 324 316 311 305 310 310 303 302 307 314 320 321 318 315 314 313 311 309 308 310 310 307 307 308 305
320 321 322 323 324 326 326 325 326 328 330 328 326 329 329 326 325 324 323 319 317 311 316 318 313 308 314 316 317 317 315 316 315 312 311 309 309 309 308 307 309 310 308
314 313 314 315 316 321 321 321 320 323 327 326 323 323 325 325 324 324 319 319 319 316 319 322 320 317 317 317 317 318 315 315 314 313 311 310 308 308 307 305 306 308 308
308 307 307 307 309 312 313 313 314 316 321 322 320 319 321 320 319 317 315 320 322 316 317 318 317 316 316 315 315 316 316 315 313 312 311 309 308 305 303 303 303 304 307
303 302 302 304 306 307 308 308 307 308 310 311 310 312 315 315 313 311 313 319 320 316 315 317 317 314 315 315 314 315 316 313 311 311 309 308 307 305 304 304 303 304 306
295 297 299 300 301 303 304 304 302 301 303 306 304 304 306 310 309 309 312 315 311 310 314 317 315 313 313 313 313 312 313 311 307 306 305 304 305 305 305 307 305 306 306
291 296 298 299 298 298 299 300 300 298 299 301 300 296 301 304 304 301 305 308 308 306 309 310 312 310 311 310 308 308 308 306 304 302 301 302 302 302 302 304 304 304 304
291 292 294 297 297 297 297 297 299 297 295 295 295 293 297 299 299 297 298 301 304 304 303 305 306 306 306 306 305 305 304 303 302 300 299 300 300 300 300 302 302 302 304
291 292 292 294 293 292 293 295 295 295 294 293 291 291 294 294 295 296 296 300 300 302 303 305 307 308 307 306 304 303 302 302 301 300 299 299 300 299 299 301 302 303 304
288 290 288 291 290 291 291 292 293 292 290 289 288 290 293 294 296 298 297 297 298 298 300 302 304 304 306 307 306 304 303 303 302 300 300 300 299 299 299 300 301 302 302
285 289 289 287 286 287 288 288 290 292 293 291 289 290 293 295 294 294 295 295 295 296 297 298 299 301 303 304 304 302 303 301 303 303 302 301 300 298 298 298 298 299 298
284 285 285 285 285 286 286 286 286 289 290 290 291 291 292 293 294 295 295 296 295 296 297 298 299 299 299 300 300 300 299 300 301 303 304 302 301 299 299 299 298 297 296
283 283 284 284 285 284 284 283 283 285 285 286 288 290 290 293 293 295 295 296 295 295 295 297 296 297 298 299 299 299 299 300 300 300 301 301 300 300 299 298 297 296 294
283 282 282 283 283 283 284 280 280 280 281 285 287 287 287 290 292 295 296 297 295 295 295 297 298 298 299 298 297 297 298 298 298 298 298 299 298 298 297 297 297 297 295
282 280 279 281 282 283 285 280 280 281 283 284 283 285 287 290 292 295 296 297 296 296 296 297 298 299 299 299 297 296 296 296 296 296 296 297 297 296 295 296 295 295 294
281 280 280 280 281 282 283 282 282 281 281 282 282 283 286 289 291 294 296 297 298 297 295 296 296 298 299 299 298 297 296 296 295 296 297 296 297 296 296 294 294 294 292
279 281 280 280 281 282 283 283 283 281 279 280 281 283 285 287 290 293 295 296 296 297 297 296 295 297 299 299 297 297 296 297 296 296 297 298 298 297 296 295 294 294 293
277 279 281 281 280 279 280 281 282 283 281 282 282 283 283 285 289 291 292 294 296 297 297 298 298 299 300 300 298 296 295 296 295 295 296 297 296 295 294 294 294 293 294
278 279 280 279 278 277 278 281 281 281 281 282 282 282 284 285 288 290 291 294 295 296 297 298 298 298 298 299 299 296 296 295 295 295 296 296 296 294 294 295 295 294 293
278 278 279 278 277 276 278 280 281 281 281 281 280 281 282 284 286 290 293 294 296 296 296 296 297 297 298 299 299 297 297 294 295 296 297 296 294 293 294 296 296 295 293
277 277 277 276 275 275 277 279 280 281 280 280 279 280 282 284 285 288 291 292 294 295 296 296 296 297 297 298 299 299 297 297 297 297 296 295 294 293 294 296 296 295 294
277 276 276 275 275 276 277 277 277 278 279 280 280 282 283 284 284 286 289 291 293 295 296 296 296 296 296 297 297 296 296 296 298 299 297 295 294 293 293 293 294 293 292
276 276 276 275 275 276 275 275 276 277 278 280 281 282 283 285 285 285 287 290 292 294 295 295 295 295 295 296 295 294 294 295 297 298 298 297 295 294 294 293 292 291 290
276 276 276 274 273 275 276 276 279 280 280 282 284 284 284 284 284 285 288 290 291 294 294 295 294 294 294 294 294 293 293 295 296 297 296 295 295 294 293 292 291 290 290
Height
5909 5908 5907 5905 5904 5903 5902 5902 5900 5899 5899 5898 5897 5897 5896 5896 5895 5895 5895 5895 5895 5895 5894 5894 5894 5894 5893 5893 5892 5891 5890 5889 5888 5888 5887 5886 5886 5885 5885 5884 5883 5883 5882
5909 5908 5907 5905 5904 5903 5902 5901 5900 5899 5898 5897 5897 5896 5896 5895 5895 5894 5894 5894 5894 5894 5893 5893 5893 5893 5892 5892 5890 5890 5889 5888 5887 5886 5886 5885 5885 5883 5883 5882 5881 5880 5879
5908 5908 5907 5905 5904 5903 5902 5901 5900 5899 5898 5897 5896 5895 5895 5894 5894 5894 5893 5893 5892 5892 5892 5892 5891 5891 5891 5890 5889 5888 5888 5887 5886 5885 5884 5884 5883 5882 5881 5880 5879 5878 5877
5908 5907 5906 5905 5904 5902 5901 5900 5899 5898 5897 5897 5896 5895 5894 5894 5893 5893 5892 5891 5891 5891 5891 5890 5890 5889 5889 5889 5888 5887 5886 5885 5884 5883 5882 5881 5880 5879 5878 5877 5876 5875 5873
5907 5906 5905 5904 5902 5901 5900 5899 5898 5898 5897 5896 5895 5895 5894 5893 5893 5892 5891 5890 5890 5890 5890 5889 5889 5888 5888 5887 5886 5885 5884 5883 5882 5881 5880 5879 5877 5876 5876 5875 5873 5872 5870
5905 5904 5903 5902 5901 5900 5899 5898 5897 5897 5896 5895 5895 5894 5893 5892 5892 5891 5890 5889 5889 5889 5888 5888 5887 5887 5886 5886 5885 5884 5882 5881 5880 5879 5877 5876 5875 5874 5873 5872 5870 5869 5867
5903 5902 5901 5900 5900 5899 5898 5897 5896 5895 5895 5894 5893 5893 5892 5891 5890 5889 5888 5888 5887 5887 5887 5886 5885 5885 5884 5883 5882 5881 5880 5879 5878 5876 5875 5874 5872 5871 5870 5868 5867 5865 5863
5900 5899 5899 5898 5897 5896 5895 5895 5894 5894 5893 5892 5892 5891 5890 5890 5889 5888 5887 5886 5886 5885 5885 5884 5883 5882 5882 5881 5880 5879 5878 5876 5875 5874 5872 5871 5869 5868 5866 5865 5863 5861 5860
5898 5897 5896 5896 5895 5894 5894 5893 5892 5892 5891 5890 5889 5889 5888 5888 5887 5887 5886 5885 5884 5884 5883 5882 5881 5880 5879 5878 5877 5876 5874 5873 5872 5870 5869 5868 5866 5864 5863 5861 5859 5858 5856
5895 5894 5894 5893 5893 5892 5891 5890 5890 5889 5888 5888 5887 5887 5886 5885 5884 5884 5884 5883 5882 5881 5880 5879 5878 5877 5876 5875 5874 5872 5871 5870 5868 5867 5865 5864 5862 5860 5859 5857 5855 5853 5851
5890 5891 5891 5890 5890 5889 5888 5888 5887 5886 5885 5885 5884 5884 5884 5882 5882 5881 5881 5881 5880 5879 5878 5877 5875 5874 5873 5871 5870 5868 5867 5866 5864 5862 5861 5859 5857 5856 5854 5852 5850 5848 5847
5887 5887 5887 5887 5886 5886 5885 5885 5884 5883 5882 5882 5881 5881 5880 5879 5879 5878 5878 5877 5877 5876 5875 5873 5872 5871 5869 5867 5866 5864 5863 5861 5859 5858 5856 5854 5852 5851 5849 5847 5845 5844 5842
5884 5883 5883 5882 5882 5882 5882 5881 5880 5880 5878 5878 5878 5878 5877 5876 5875 5875 5874 5874 5873 5872 5871 5869 5868 5866 5865 5863 5861 5859 5858 5856 5854 5853 5851 5849 5847 5845 5844 5842 5840 5839 5837
5880 5880 5879 5878 5878 5878 5878 5877 5877 5876 5875 5875 5874 5873 5873 5872 5872 5871 5870 5869 5868 5867 5866 5865 5863 5862 5860 5858 5856 5855 5853 5851 5849 5848 5846 5844 5842 5840 5838 5837 5835 5833 5831
5876 5876 5875 5874 5874 5874 5873 5873 5872 5872 5871 5871 5870 5869 5869 5868 5867 5867 5866 5864 5863 5862 5861 5860 5858 5857 5855 5853 5851 5849 5847 5845 5844 5842 5840 5838 5836 5834 5833 5831 5829 5827 5825
5871 5871 5870 5870 5869 5869 5868 5868 5868 5867 5867 5866 5866 5865 5864 5863 5863 5862 5860 5859 5858 5857 5855 5854 5852 5851 5849 5847 5845 5843 5841 5839 5838 5836 5834 5832 5830 5828 5826 5824 5822 5820 5818
5866 5866 5865 5865 5864 5863 5863 5863 5862 5862 5862 5861 5860 5860 5859 5858 5857 5856 5855 5854 5852 5851 5849 5848 5846 5844 5842 5840 5838 5836 5834 5833 5831 5829 5827 5825 5823 5822 5820 5818 5816 5814 5812
5860 5860 5860 5859 5859 5858 5858 5857 5857 5856 5856 5856 5855 5854 5853 5853 5852 5851 5850 5848 5847 5845 5843 5842 5840 5838 5836 5833 5831 5829 5827 5825 5824 5822 5820 5818 5816 5814 5812 5810 5808 5806 5804
5854 5854 5854 5853 5853 5852 5852 5851 5851 5850 5850 5850 5849 5848 5848 5847 5846 5845 5844 5842 5840 5839 5837 5835 5833 5831 5829 5826 5824 5822 5820 5818 5816 5814 5812 5810 5808 5806 5804 5802 5800 5798 5796
5846 5846 5847 5847 5846 5845 5845 5845 5844 5844 5844 5843 5843 5842 5841 5840 5839 5838 5837 5835 5834 5832 5830 5828 5826 5824 5822 5819 5817 5814 5813 5810 5808 5806 5804 5802 5800 5798 5795 5793 5791 5790 5788
5840 5840 5840 5840 5839 5838 5838 5838 5838 5838 5837 5836 5835 5834 5834 5833 5832 5831 5830 5828 5827 5825 5823 5821 5819 5816 5814 5812 5810 5807 5805 5803 5800 5798 5796 5794 5792 5789 5787 5785 5783 5782 5780
5833 5833 5833 5832 5832 5831 5831 5832 5831 5830 5830 5829 5828 5827 5826 5825 5825 5824 5823 5821 5819 5817 5815 5813 5811 5809 5807 5804 5802 5800 5797 5795 5793 5790 5788 5786 5783 5782 5780 5778 5776 5774 5772
5825 5825 5825 5825 5824 5824 5824 5824 5823 5822 5822 5821 5820 5819 5819 5818 5817 5816 5815 5813 5811 5809 5807 5805 5803 5801 5799 5796 5794 5792 5789 5787 5785 5782 5780 5778 5775 5774 5772 5770 5768 5766 5765
5817 5817 5816 5816 5816 5816 5816 5815 5815 5814 5814 5813 5812 5811 5810 5810 5809 5808 5806 5804 5803 5801 5798 5796 5794 5792 5790 5788 5786 5783 5781 5779 5776 5774 5772 5770 5768 5766 5764 5762 5760 5759 5757
5809 5808 5808 5808 5807 5807 5807 5807 5806 5806 5805 5804 5803 5802 5802 5801 5800 5798 5797 5795 5794 5792 5789 5787 5785 5783 5782 5780 5777 5775 5773 5771 5768 5766 5764 5762 5760 5758 5756 5755 5753 5751 5750
5801 5800 5799 5799 5799 5799 5798 5798 5797 5797 5796 5795 5794 5793 5792 5791 5790 5789 5787 5786 5784 5783 5780 5778 5776 5774 5772 5770 5769 5767 5764 5762 5760 5758 5756 5754 5752 5750 5749 5747 5745 5743 5742